PBO Station Position Time Series. Reference Frame : NAM14
Format Version,1.1.1
4-character ID,AB51
Station name,PetersburgAK2005
Begin Date, 2005-10-03
End Date, 2023-06-26
Release Date, 2023-06-27
Reference position, 56.7976228313 North Latitude, -132.9135613755 East Longitude, 75.88763 meters elevation,
Date, North (mm), East (mm), Vertical (mm), North Std. Deviation (mm), East Std. Deviation (mm),              Vertical Std. Deviation (mm), Quality,
2005-10-03,0.00, 0.00, 0.00, 2.47, 1.61, 7.38, repro,
2005-10-04,1.21, -0.32, 2.20, 2.47, 1.62, 7.42, repro,
2005-10-05,0.80, 0.21, -3.26, 2.41, 1.56, 7.25, repro,
2005-10-06,-2.45, -0.88, -4.99, 2.42, 1.57, 7.30, repro,
2005-10-07,-2.43, -1.43, 2.60, 2.41, 1.56, 7.24, repro,
2005-10-08,0.57, -1.59, 8.10, 2.45, 1.59, 7.35, repro,
2005-10-09,0.80, -1.75, 7.99, 2.42, 1.58, 7.26, repro,
2005-10-10,-1.62, -0.62, -2.48, 2.44, 1.59, 7.35, repro,
2005-10-11,0.44, 0.24, -0.00, 2.46, 1.61, 7.37, repro,
2005-10-12,0.18, 0.11, -4.65, 2.47, 1.60, 7.36, repro,
2005-10-13,1.54, -3.05, -4.36, 2.44, 1.58, 7.49, repro,
2005-10-14,1.91, -2.20, 3.40, 2.40, 1.57, 7.22, repro,
2005-10-15,2.29, -2.88, -3.53, 2.41, 1.57, 7.26, repro,
2005-10-16,-0.09, -1.18, -1.59, 2.40, 1.55, 7.22, repro,
2005-10-17,2.14, -3.26, 7.42, 2.41, 1.56, 7.25, repro,
2005-10-18,1.95, -1.87, 1.88, 2.53, 1.63, 7.68, repro,
2005-10-19,2.12, -1.99, 1.80, 2.48, 1.60, 7.41, repro,
2005-10-20,0.69, -1.59, 2.04, 2.51, 1.64, 7.42, repro,
2005-10-21,2.54, 0.18, 1.24, 2.45, 1.57, 7.33, repro,
2005-10-22,4.84, -2.63, 7.47, 2.43, 1.56, 7.26, repro,
2005-10-23,3.21, -2.78, 2.70, 2.43, 1.56, 7.28, repro,
2005-10-24,2.89, -2.46, -2.14, 2.44, 1.56, 7.31, repro,
2005-10-25,4.45, -3.00, 4.67, 2.44, 1.59, 7.37, repro,
2005-10-26,2.51, -3.07, 6.63, 2.49, 1.63, 7.48, repro,
2005-10-27,0.42, -1.42, -2.52, 2.46, 1.60, 7.51, repro,
2005-10-28,3.03, -2.74, 0.95, 2.42, 1.56, 7.26, repro,
2005-10-29,3.12, -1.80, 4.18, 2.50, 1.61, 7.41, repro,
2005-10-30,3.45, 0.69, -10.02, 2.41, 1.56, 7.24, repro,
2005-10-31,1.36, -3.08, 1.41, 2.51, 1.63, 7.39, repro,
2005-11-01,0.83, -2.70, -1.35, 2.56, 1.67, 7.72, repro,
2005-11-02,3.11, -2.82, 3.94, 2.57, 1.66, 7.65, repro,
2005-11-03,2.43, -3.14, 5.99, 2.53, 1.61, 7.35, repro,
2005-11-04,3.25, -3.31, 2.30, 2.54, 1.63, 7.52, repro,
2005-11-05,1.52, -0.35, -8.09, 2.55, 1.66, 7.49, repro,
2005-11-06,3.30, -2.54, -1.29, 2.55, 1.67, 7.53, repro,
2005-11-07,3.87, -2.05, -9.41, 2.56, 1.67, 7.55, repro,
2005-11-08,7.31, 1.39, -10.42, 2.57, 1.65, 7.48, repro,
2005-11-09,3.20, -1.56, -1.79, 2.73, 1.76, 7.99, repro,
2005-11-10,3.05, -1.14, -0.46, 2.76, 1.77, 8.04, repro,
2005-11-11,1.34, -1.76, 2.02, 2.85, 1.85, 8.28, repro,
2005-11-12,3.38, -1.91, 0.77, 2.47, 1.59, 7.23, repro,
2005-11-13,5.51, -3.99, -4.20, 2.67, 1.72, 7.80, repro,
2005-11-14,4.47, -2.74, -7.91, 2.56, 1.64, 7.59, repro,
2005-11-15,5.01, -1.43, -20.73, 2.41, 1.56, 7.27, repro,
2005-11-16,4.57, -4.66, -18.26, 2.51, 1.63, 7.59, repro,
2005-11-17,0.85, -1.99, -13.56, 2.42, 1.57, 7.29, repro,
2005-11-18,1.49, -4.07, -10.85, 2.44, 1.58, 7.31, repro,
2005-11-19,1.67, -2.93, -4.89, 2.44, 1.57, 7.30, repro,
2005-11-20,2.94, -1.97, -14.64, 2.46, 1.58, 7.41, repro,
2005-11-21,-1.15, -2.25, -14.50, 2.53, 1.64, 7.75, repro,
2005-11-22,-0.21, -0.32, -7.71, 2.55, 1.67, 7.61, repro,
2005-11-23,4.48, 0.39, -16.29, 2.42, 1.58, 7.33, repro,
2005-11-24,5.21, -2.21, 0.17, 2.49, 1.61, 7.55, repro,
2005-11-25,5.39, -2.78, -1.76, 2.44, 1.57, 7.32, repro,
2005-11-26,2.42, -4.35, -7.81, 2.49, 1.60, 7.54, repro,
2005-11-27,0.74, -2.14, -7.28, 2.49, 1.64, 7.61, repro,
2005-11-28,5.31, -2.56, -6.98, 2.51, 1.61, 7.58, repro,
2005-11-29,4.63, -3.36, -2.36, 2.43, 1.57, 7.31, repro,
2005-11-30,5.57, -4.05, -11.81, 2.42, 1.57, 7.28, repro,
2005-12-01,6.41, -4.50, -9.14, 2.42, 1.58, 7.38, repro,
2005-12-02,5.94, -3.48, -4.29, 2.43, 1.59, 7.45, repro,
2005-12-03,4.39, -2.25, -4.60, 2.43, 1.57, 7.27, repro,
2005-12-04,5.85, -3.68, -13.48, 2.42, 1.57, 7.30, repro,
2005-12-05,6.11, -6.66, -11.68, 2.47, 1.61, 7.43, repro,
2005-12-06,5.63, -6.34, -6.84, 2.47, 1.59, 7.37, repro,
2005-12-07,3.17, -5.02, -6.46, 2.45, 1.60, 7.36, repro,
2005-12-08,2.60, -0.67, -2.84, 2.47, 1.60, 7.39, repro,
2005-12-09,3.58, -1.73, -9.68, 2.43, 1.57, 7.33, repro,
2005-12-10,1.62, -1.34, -8.96, 2.43, 1.57, 7.30, repro,
2005-12-11,4.81, -1.07, -10.34, 2.40, 1.56, 7.21, repro,
2005-12-12,2.42, -1.30, -14.59, 2.40, 1.55, 7.20, repro,
2005-12-13,4.41, -2.75, -17.31, 2.42, 1.55, 7.24, repro,
2005-12-14,3.09, -1.68, -24.16, 2.42, 1.56, 7.26, repro,
2005-12-15,3.23, -1.46, -25.59, 2.48, 1.60, 7.42, repro,
2005-12-16,2.08, -1.38, -8.42, 2.47, 1.62, 7.34, repro,
2005-12-17,-0.03, -2.53, -8.01, 2.49, 1.63, 7.37, repro,
2005-12-18,3.45, -2.62, -11.89, 2.42, 1.58, 7.38, repro,
2005-12-19,3.55, -2.19, -8.02, 2.53, 1.64, 7.54, repro,
2005-12-20,7.12, -3.44, -6.89, 2.59, 1.70, 7.75, repro,
2005-12-21,4.64, -2.19, -12.52, 2.51, 1.65, 7.56, repro,
2005-12-22,2.13, -3.25, -6.47, 2.49, 1.65, 7.54, repro,
2005-12-23,0.83, -2.12, -16.67, 2.53, 1.65, 7.34, repro,
2005-12-24,1.02, -1.56, -16.68, 2.61, 1.77, 8.37, repro,
2005-12-25,5.52, -2.48, -12.03, 2.50, 1.64, 7.53, repro,
2005-12-26,3.31, -2.69, -3.67, 2.45, 1.62, 7.29, repro,
2005-12-27,3.01, -2.97, -11.34, 2.53, 1.70, 7.80, repro,
2005-12-28,5.04, -2.92, -13.61, 2.45, 1.64, 7.44, repro,
2005-12-29,4.83, -1.10, -15.44, 2.51, 1.68, 7.69, repro,
2005-12-30,0.28, -1.24, -6.10, 2.58, 1.72, 8.43, repro,
2005-12-31,1.72, -0.06, -8.85, 2.64, 1.76, 8.25, repro,
2006-01-01,1.61, -2.40, -11.61, 2.54, 1.69, 7.80, repro,
2006-01-02,3.39, -2.93, -6.11, 2.43, 1.62, 7.26, repro,
2006-01-03,1.88, -1.66, -11.87, 2.67, 1.79, 8.59, repro,
2006-01-04,1.98, -1.05, -10.24, 2.80, 1.83, 8.65, repro,
2006-01-05,1.18, -1.75, -16.38, 2.52, 1.70, 7.86, repro,
2006-01-06,2.87, -0.09, -13.07, 2.56, 1.72, 8.06, repro,
2006-01-07,2.66, -0.64, -11.31, 2.51, 1.64, 7.55, repro,
2006-01-08,5.14, -2.09, -9.88, 2.50, 1.68, 7.77, repro,
2006-01-09,6.20, -2.60, -0.52, 2.54, 1.72, 8.05, repro,
2006-01-10,3.65, -2.39, -10.12, 2.61, 1.75, 8.20, repro,
2006-01-11,4.79, -3.50, 2.29, 2.53, 1.68, 7.72, repro,
2006-01-12,2.71, -2.23, -8.70, 2.57, 1.70, 7.62, repro,
2006-01-13,6.30, -1.93, -4.06, 2.54, 1.72, 8.10, repro,
2006-01-14,5.52, -2.82, -8.66, 2.41, 1.61, 7.19, repro,
2006-01-15,6.03, -2.70, -5.23, 2.42, 1.61, 7.23, repro,
2006-01-16,2.90, 0.56, -13.72, 2.49, 1.69, 7.81, repro,
2006-01-17,6.12, 0.16, -5.56, 2.54, 1.70, 7.65, repro,
2006-01-18,3.08, -2.34, 3.36, 2.48, 1.60, 7.31, repro,
2006-01-19,5.23, -2.14, -9.62, 2.55, 1.69, 7.75, repro,
2006-01-20,6.21, -1.91, -7.69, 2.46, 1.61, 7.31, repro,
2006-01-21,1.75, -1.62, -7.53, 2.42, 1.59, 7.18, repro,
2006-01-22,1.32, -0.29, -18.62, 2.45, 1.59, 7.25, repro,
2006-01-23,4.08, -4.41, -8.68, 2.46, 1.60, 7.26, repro,
2006-01-24,3.72, -0.89, -33.19, 2.49, 1.65, 7.37, repro,
2006-01-25,7.20, -0.29, -17.10, 2.34, 1.54, 7.07, repro,
2006-01-26,7.23, -2.90, -6.83, 2.34, 1.53, 7.01, repro,
2006-01-27,6.43, -2.11, -7.97, 2.34, 1.52, 7.02, repro,
2006-01-28,6.19, -1.82, -7.56, 2.38, 1.54, 7.11, repro,
2006-01-29,6.78, 1.31, -9.34, 2.37, 1.54, 7.07, repro,
2006-01-30,6.77, -1.11, -2.12, 2.34, 1.54, 7.05, repro,
2006-01-31,4.28, -1.45, -2.44, 2.34, 1.53, 6.97, repro,
2006-02-01,2.92, 0.48, -12.09, 2.33, 1.53, 6.95, repro,
2006-02-02,1.53, -1.01, -10.69, 2.36, 1.53, 6.99, repro,
2006-02-03,6.62, -1.54, -13.95, 2.37, 1.53, 7.01, repro,
2006-02-04,5.01, -2.23, -9.54, 2.36, 1.53, 7.01, repro,
2006-02-05,3.47, -0.19, -13.41, 2.35, 1.53, 6.99, repro,
2006-02-06,4.78, 1.75, -20.37, 2.36, 1.53, 7.04, repro,
2006-02-07,5.00, -0.18, -21.17, 2.36, 1.52, 6.97, repro,
2006-02-08,3.04, 1.85, -16.10, 2.37, 1.52, 7.01, repro,
2006-02-09,1.69, 0.08, -27.24, 2.45, 1.56, 7.20, repro,
2006-02-10,5.29, 0.52, -23.70, 2.66, 1.67, 7.68, repro,
2006-02-11,5.45, 1.69, -22.20, 2.38, 1.54, 7.09, repro,
2006-02-12,3.32, 0.14, -30.79, 2.40, 1.53, 7.13, repro,
2006-02-13,4.58, 0.59, -18.47, 2.39, 1.53, 7.09, repro,
2006-02-14,5.02, 0.47, -18.96, 2.38, 1.52, 7.03, repro,
2006-02-15,5.44, -0.39, -24.02, 2.39, 1.53, 7.11, repro,
2006-02-16,5.31, 0.26, -26.38, 2.37, 1.53, 7.09, repro,
2006-02-17,5.63, -0.56, -22.71, 2.38, 1.54, 7.11, repro,
2006-02-18,5.72, -0.73, -22.37, 2.40, 1.53, 7.14, repro,
2006-02-19,5.19, -1.03, -14.86, 2.39, 1.52, 7.09, repro,
2006-02-20,4.57, -1.00, -23.97, 2.39, 1.53, 7.10, repro,
2006-02-21,5.13, -1.62, -21.09, 2.37, 1.53, 7.09, repro,
2006-02-22,6.57, -1.60, -13.99, 2.38, 1.53, 7.07, repro,
2006-02-23,6.29, -1.80, -12.81, 2.40, 1.53, 7.10, repro,
2006-02-24,8.40, -1.17, -16.19, 2.41, 1.54, 7.14, repro,
2006-02-25,7.29, -1.27, -22.43, 2.40, 1.53, 7.12, repro,
2006-02-26,5.92, -1.30, -18.37, 2.37, 1.52, 7.03, repro,
2006-02-27,6.68, -0.99, -7.60, 2.37, 1.53, 7.06, repro,
2006-02-28,3.66, 1.05, -4.38, 2.43, 1.56, 7.17, repro,
2006-03-01,6.86, -0.55, -10.56, 2.51, 1.57, 7.38, repro,
2006-03-02,7.81, -1.58, -15.48, 2.40, 1.53, 7.08, repro,
2006-03-03,6.92, -1.57, -12.48, 2.44, 1.55, 7.20, repro,
2006-03-04,6.68, -1.78, -15.28, 2.37, 1.52, 7.00, repro,
2006-03-05,6.55, -1.65, -15.99, 2.36, 1.53, 7.02, repro,
2006-03-06,4.94, -1.06, -17.10, 2.38, 1.53, 7.06, repro,
2006-03-07,5.18, -1.34, -23.10, 2.40, 1.53, 7.07, repro,
2006-03-08,11.28, 0.01, -38.58, 2.41, 1.53, 7.12, repro,
2006-03-09,5.20, -3.37, -5.67, 2.37, 1.52, 7.02, repro,
2006-03-10,6.20, -1.76, -5.86, 2.37, 1.53, 7.03, repro,
2006-03-11,7.07, -2.01, -15.79, 2.41, 1.54, 7.12, repro,
2006-03-12,6.56, -1.43, -16.43, 2.43, 1.54, 7.13, repro,
2006-03-13,7.46, -2.04, -19.78, 2.50, 1.58, 7.35, repro,
2006-03-14,8.69, -1.67, -18.16, 2.46, 1.55, 7.20, repro,
2006-03-15,8.15, -1.98, -20.84, 2.45, 1.56, 7.24, repro,
2006-03-16,6.91, -1.35, -13.33, 2.49, 1.59, 7.30, repro,
2006-03-17,6.89, -1.71, -16.51, 2.50, 1.59, 7.30, repro,
2006-03-18,8.17, -1.53, -18.16, 2.46, 1.55, 7.21, repro,
2006-03-19,5.98, 0.98, -18.59, 2.47, 1.56, 7.27, repro,
2006-03-20,1.87, 0.22, -24.33, 2.44, 1.55, 7.19, repro,
2006-03-21,4.57, -1.14, -13.72, 2.46, 1.57, 7.29, repro,
2006-03-22,4.54, -1.24, -22.52, 2.45, 1.58, 7.25, repro,
2006-03-23,5.60, -0.70, -24.91, 2.50, 1.60, 7.27, repro,
2006-03-24,7.00, -1.43, -21.56, 2.47, 1.60, 7.24, repro,
2006-03-25,6.23, -1.37, -16.11, 2.50, 1.59, 7.28, repro,
2006-03-26,5.85, -2.51, -22.70, 2.50, 1.61, 7.32, repro,
2006-03-27,6.07, -1.02, -22.77, 2.47, 1.60, 7.32, repro,
2006-03-28,6.20, -0.91, -18.39, 2.39, 1.55, 7.10, repro,
2006-03-29,5.51, -0.24, -15.37, 2.35, 1.53, 7.04, repro,
2006-03-30,5.39, -0.72, -16.04, 2.33, 1.53, 7.01, repro,
2006-03-31,4.86, -0.25, -13.88, 2.34, 1.53, 7.03, repro,
2006-04-01,4.42, -1.04, -8.93, 2.37, 1.54, 7.11, repro,
2006-04-02,6.39, 0.05, -16.32, 2.33, 1.53, 7.07, repro,
2006-04-03,4.93, 0.34, -19.64, 2.34, 1.53, 7.05, repro,
2006-04-04,4.80, 0.70, -18.93, 2.33, 1.54, 7.03, repro,
2006-04-05,5.99, 0.28, -13.96, 2.53, 1.65, 7.48, repro,
2006-04-06,4.33, -0.59, -13.09, 2.44, 1.58, 7.38, repro,
2006-04-07,2.25, 0.91, -20.28, 2.45, 1.58, 7.38, repro,
2006-04-08,5.39, -0.81, -17.48, 2.39, 1.55, 7.20, repro,
2006-04-09,4.98, -2.12, -13.42, 2.40, 1.59, 7.36, repro,
2006-04-10,5.41, -0.78, -15.08, 2.35, 1.55, 7.08, repro,
2006-04-11,5.72, -0.88, -16.08, 2.38, 1.58, 7.39, repro,
2006-04-12,3.94, -1.24, -12.95, 2.37, 1.58, 7.39, repro,
2006-04-13,2.38, 0.41, -14.05, 2.34, 1.53, 7.05, repro,
2006-04-14,2.71, -0.44, -3.91, 2.65, 1.74, 8.08, repro,
2006-04-15,5.22, -0.41, -3.79, 2.42, 1.58, 7.23, repro,
2006-04-16,5.40, -1.02, -8.46, 2.35, 1.54, 7.11, repro,
2006-04-17,5.02, 0.02, -12.10, 2.35, 1.54, 7.10, repro,
2006-04-18,4.05, 1.04, -18.14, 2.34, 1.53, 7.07, repro,
2006-04-19,3.21, 1.24, -20.29, 2.35, 1.53, 7.07, repro,
2006-04-20,3.29, 1.04, -15.88, 2.42, 1.59, 7.27, repro,
2006-04-21,6.63, -0.44, -18.14, 2.34, 1.54, 7.08, repro,
2006-04-22,6.10, 1.36, -26.63, 2.36, 1.56, 7.13, repro,
2006-04-23,5.49, 2.00, -26.28, 2.32, 1.54, 7.06, repro,
2006-04-24,5.29, 1.05, -21.33, 2.39, 1.58, 7.21, repro,
2006-04-25,6.82, -0.05, -14.54, 2.39, 1.58, 7.24, repro,
2006-04-26,6.02, 0.24, -17.27, 2.34, 1.55, 7.15, repro,
2006-04-27,6.79, 1.18, -21.10, 2.45, 1.60, 7.36, repro,
2006-04-28,6.67, 1.32, -20.90, 2.42, 1.57, 7.29, repro,
2006-04-29,8.02, 0.96, -31.61, 2.33, 1.54, 7.04, repro,
2006-04-30,4.95, 2.96, -37.40, 2.35, 1.53, 7.07, repro,
2006-05-01,7.26, 0.38, -21.01, 2.35, 1.54, 7.12, repro,
2006-05-02,5.71, 1.34, -22.01, 2.35, 1.55, 7.13, repro,
2006-05-03,9.06, 0.55, -18.07, 2.35, 1.55, 7.14, repro,
2006-05-04,4.10, 0.74, -27.80, 2.35, 1.56, 7.14, repro,
2006-05-05,6.14, 1.31, -30.84, 2.34, 1.52, 7.00, repro,
2006-05-06,4.73, 0.78, -21.92, 2.37, 1.54, 7.11, repro,
2006-05-07,5.20, -0.93, -16.84, 2.37, 1.55, 7.16, repro,
2006-05-08,7.99, -0.70, -25.32, 2.35, 1.54, 7.15, repro,
2006-05-09,5.68, 0.47, -32.32, 2.40, 1.58, 7.18, repro,
2006-05-10,7.34, 2.00, -36.09, 2.33, 1.52, 7.02, repro,
2006-05-11,7.01, -0.53, -24.82, 2.36, 1.53, 7.08, repro,
2006-05-12,7.20, 0.37, -19.71, 2.34, 1.53, 7.05, repro,
2006-05-13,7.32, 0.59, -23.60, 2.36, 1.55, 7.13, repro,
2006-05-14,8.13, 0.38, -25.42, 2.35, 1.54, 7.11, repro,
2006-05-15,8.56, 0.35, -23.79, 2.32, 1.53, 7.04, repro,
2006-05-16,9.14, 0.50, -19.13, 2.37, 1.56, 7.30, repro,
2006-05-17,5.29, 1.40, -28.64, 2.38, 1.56, 7.34, repro,
2006-05-18,6.80, 0.31, -18.86, 2.38, 1.57, 7.13, repro,
2006-05-19,6.73, 0.57, -27.69, 2.41, 1.60, 7.23, repro,
2006-05-20,6.94, 0.08, -20.96, 2.40, 1.59, 7.22, repro,
2006-05-21,7.77, 0.77, -12.83, 2.41, 1.58, 7.18, repro,
2006-05-22,7.50, 0.35, -7.05, 2.44, 1.61, 7.38, repro,
2006-05-23,7.92, -0.52, -13.44, 2.41, 1.59, 7.21, repro,
2006-05-24,7.37, 0.57, -23.16, 2.41, 1.59, 7.21, repro,
2006-05-25,7.36, -0.69, -14.44, 2.44, 1.64, 7.47, repro,
2006-05-26,8.36, -0.88, -12.12, 2.45, 1.63, 7.46, repro,
2006-05-27,9.18, -0.56, -14.69, 2.42, 1.58, 7.24, repro,
2006-05-28,8.46, -0.08, -11.45, 2.40, 1.58, 7.20, repro,
2006-05-29,5.91, 0.40, -24.00, 2.42, 1.59, 7.23, repro,
2006-05-30,5.91, 0.31, -20.74, 2.41, 1.60, 7.25, repro,
2006-05-31,5.22, 0.36, -21.76, 2.47, 1.64, 7.38, repro,
2006-06-01,6.69, 0.02, -19.93, 2.43, 1.59, 7.24, repro,
2006-06-02,8.12, 0.97, -20.55, 2.57, 1.65, 7.55, repro,
2006-06-03,7.92, 0.56, -21.93, 2.56, 1.65, 7.55, repro,
2006-06-04,7.54, -0.61, -18.05, 2.49, 1.63, 7.41, repro,
2006-06-05,6.61, 0.25, -14.91, 2.44, 1.62, 7.33, repro,
2006-06-06,6.21, 0.07, -17.63, 2.48, 1.64, 7.43, repro,
2006-06-07,7.99, 0.45, -21.60, 2.48, 1.62, 7.37, repro,
2006-06-08,8.13, 0.14, -21.71, 2.42, 1.58, 7.23, repro,
2006-06-09,9.11, -0.01, -17.47, 2.42, 1.58, 7.20, repro,
2006-06-10,8.08, -0.66, -15.55, 2.40, 1.59, 7.20, repro,
2006-06-11,7.23, -0.23, -14.58, 2.40, 1.59, 7.18, repro,
2006-06-12,7.51, -0.71, -9.64, 2.42, 1.58, 7.18, repro,
2006-06-13,7.00, -0.33, -10.00, 2.42, 1.59, 7.24, repro,
2006-06-14,6.53, 0.60, -11.11, 2.41, 1.59, 7.21, repro,
2006-06-15,6.11, 0.14, -14.92, 2.42, 1.59, 7.21, repro,
2006-06-16,7.41, -0.21, -1.03, 2.41, 1.59, 7.20, repro,
2006-06-17,7.33, -0.13, -13.87, 2.41, 1.59, 7.20, repro,
2006-06-18,7.19, 0.92, -13.77, 2.50, 1.65, 7.43, repro,
2006-06-19,6.75, -1.24, -17.09, 2.45, 1.63, 7.30, repro,
2006-06-20,6.81, -1.06, -15.23, 2.45, 1.63, 7.32, repro,
2006-06-21,4.91, -0.69, -16.86, 2.47, 1.64, 7.36, repro,
2006-06-22,4.73, -0.51, -21.57, 2.46, 1.63, 7.32, repro,
2006-06-23,8.10, -0.16, -16.85, 2.47, 1.64, 7.37, repro,
2006-06-24,5.48, -1.42, -18.75, 2.48, 1.63, 7.40, repro,
2006-06-25,5.53, -0.57, -24.76, 2.47, 1.63, 7.35, repro,
2006-06-26,8.92, -1.21, -21.89, 2.47, 1.64, 7.35, repro,
2006-06-27,6.31, -0.72, -13.62, 2.44, 1.64, 7.30, repro,
2006-06-28,8.08, -0.13, -11.17, 2.48, 1.64, 7.39, repro,
2006-06-29,6.05, -0.69, -9.60, 2.41, 1.59, 7.26, repro,
2006-06-30,6.65, -0.52, -7.50, 2.40, 1.58, 7.43, repro,
2006-07-01,7.12, -0.33, -10.13, 2.39, 1.59, 7.47, repro,
2006-07-02,7.66, 0.24, -11.98, 2.41, 1.61, 7.60, repro,
2006-07-03,10.22, -0.48, -15.61, 2.38, 1.59, 7.45, repro,
2006-07-04,8.05, 0.27, -10.84, 2.40, 1.59, 7.47, repro,
2006-07-05,8.37, 0.09, -17.21, 2.38, 1.58, 7.38, repro,
2006-07-06,7.74, -0.91, -12.82, 2.39, 1.57, 7.39, repro,
2006-07-07,6.97, 0.25, -11.91, 2.39, 1.57, 7.38, repro,
2006-07-08,7.96, 0.06, -11.32, 2.36, 1.58, 7.38, repro,
2006-07-09,7.02, -1.00, -15.28, 2.37, 1.57, 7.36, repro,
2006-07-10,7.29, -0.74, -15.52, 2.38, 1.57, 7.37, repro,
2006-07-11,6.53, 0.13, -5.82, 2.38, 1.57, 7.35, repro,
2006-07-12,6.83, 0.32, -8.88, 2.40, 1.58, 7.43, repro,
2006-07-13,5.30, 0.15, -13.51, 2.41, 1.59, 7.49, repro,
2006-07-14,7.52, 0.47, -9.45, 2.39, 1.58, 7.43, repro,
2006-07-15,6.57, -0.32, -7.18, 2.37, 1.58, 7.37, repro,
2006-07-16,6.26, -0.71, -15.73, 2.38, 1.58, 7.37, repro,
2006-07-17,6.79, -0.56, -10.58, 2.45, 1.62, 7.55, repro,
2006-07-18,7.38, 0.14, -10.00, 2.38, 1.54, 7.16, repro,
2006-07-19,7.87, 0.50, -9.00, 2.34, 1.54, 7.10, repro,
2006-07-20,6.38, -0.10, -13.87, 2.35, 1.55, 7.14, repro,
2006-07-21,5.58, -0.07, -18.15, 2.35, 1.54, 7.13, repro,
2006-07-22,6.94, -1.94, -13.88, 2.36, 1.53, 7.11, repro,
2006-07-23,8.01, -1.03, -16.75, 2.37, 1.54, 7.21, repro,
2006-07-24,4.77, -1.10, -13.29, 2.38, 1.55, 7.24, repro,
2006-07-25,7.26, -2.04, -12.01, 2.37, 1.54, 7.13, repro,
2006-07-26,5.25, -1.84, -15.05, 2.36, 1.54, 7.10, repro,
2006-07-27,5.65, -1.50, -16.59, 2.36, 1.54, 7.08, repro,
2006-07-28,6.80, -1.00, -12.79, 2.38, 1.55, 7.20, repro,
2006-07-29,7.22, -0.81, -9.45, 2.37, 1.54, 7.13, repro,
2006-07-30,5.50, -1.19, -6.50, 2.42, 1.60, 7.31, repro,
2006-07-31,6.93, -1.56, -7.28, 2.36, 1.53, 7.05, repro,
2006-08-01,5.69, -3.31, -2.83, 2.37, 1.54, 7.09, repro,
2006-08-02,5.54, -1.76, -11.23, 2.42, 1.58, 7.30, repro,
2006-08-03,6.96, -1.88, -6.84, 2.41, 1.58, 7.26, repro,
2006-08-04,6.95, -1.09, -9.61, 2.47, 1.64, 7.38, repro,
2006-08-05,5.84, -1.25, -11.35, 2.40, 1.57, 7.23, repro,
2006-08-06,6.84, -3.33, -9.08, 2.41, 1.57, 7.19, repro,
2006-08-07,6.40, -2.43, -9.51, 2.49, 1.62, 7.50, repro,
2006-08-08,4.52, -0.71, -15.99, 2.37, 1.53, 7.12, repro,
2006-08-09,5.62, -1.23, -12.86, 2.33, 1.53, 7.05, repro,
2006-08-10,6.78, -2.02, -11.04, 2.34, 1.54, 7.10, repro,
2006-08-11,6.36, -1.11, -3.64, 2.36, 1.54, 7.12, repro,
2006-08-12,5.49, -3.03, -10.02, 2.36, 1.53, 7.13, repro,
2006-08-13,6.30, -1.78, -10.01, 2.35, 1.53, 7.11, repro,
2006-08-14,5.30, -2.04, -6.08, 2.34, 1.53, 7.07, repro,
2006-08-15,5.96, -0.54, 2.30, 2.40, 1.58, 7.29, repro,
2006-08-16,6.51, -1.19, -0.88, 2.36, 1.53, 7.14, repro,
2006-08-17,4.93, -1.78, -8.20, 2.38, 1.53, 7.13, repro,
2006-08-18,7.37, -2.47, -12.83, 2.41, 1.56, 7.20, repro,
2006-08-19,5.21, -1.40, -9.05, 2.35, 1.53, 7.11, repro,
2006-08-20,5.71, -0.98, -6.41, 2.34, 1.56, 7.10, repro,
2006-08-21,6.30, -2.18, -5.61, 2.36, 1.55, 7.20, repro,
2006-08-22,6.57, -1.94, -1.58, 2.40, 1.55, 7.31, repro,
2006-08-23,6.96, -2.37, 1.00, 2.38, 1.55, 7.27, repro,
2006-08-24,6.88, -1.80, -2.73, 2.38, 1.55, 7.21, repro,
2006-08-25,5.30, 0.82, -3.76, 2.42, 1.62, 7.41, repro,
2006-08-26,5.33, -1.16, -3.48, 2.47, 1.64, 7.52, repro,
2006-08-27,5.01, -1.87, -3.80, 2.51, 1.63, 7.58, repro,
2006-08-28,4.03, -1.50, 4.13, 2.52, 1.64, 7.61, repro,
2006-08-29,7.27, -2.57, 5.01, 2.49, 1.63, 7.54, repro,
2006-08-30,6.41, -2.32, 1.55, 2.45, 1.64, 7.49, repro,
2006-08-31,5.18, -0.54, -6.05, 2.47, 1.64, 7.51, repro,
2006-09-01,3.31, -0.77, -15.02, 2.48, 1.63, 7.51, repro,
2006-09-02,3.79, -1.19, -3.21, 2.53, 1.64, 7.64, repro,
2006-09-03,8.98, -2.36, -2.35, 2.48, 1.62, 7.52, repro,
2006-09-04,7.78, -2.46, -4.45, 2.54, 1.67, 7.72, repro,
2006-09-05,6.73, -2.37, -9.33, 2.53, 1.67, 7.68, repro,
2006-09-06,5.89, -2.98, -6.05, 2.48, 1.63, 7.51, repro,
2006-09-07,3.56, -0.60, 1.65, 2.57, 1.68, 7.82, repro,
2006-09-08,5.58, -2.89, 5.22, 2.57, 1.66, 7.80, repro,
2006-09-09,4.63, -1.96, -0.78, 2.42, 1.58, 7.34, repro,
2006-09-10,4.68, -1.45, -0.56, 2.43, 1.59, 7.35, repro,
2006-09-11,2.61, -0.91, -1.25, 2.43, 1.58, 7.35, repro,
2006-09-12,2.87, -2.27, -9.99, 2.42, 1.59, 7.35, repro,
2006-09-13,7.22, -2.36, -0.62, 2.44, 1.59, 7.42, repro,
2006-09-14,6.35, -2.24, -3.91, 2.53, 1.68, 7.70, repro,
2006-09-15,5.75, -2.12, -2.78, 2.45, 1.61, 7.35, repro,
2006-09-16,5.24, -1.45, 1.49, 2.35, 1.56, 7.18, repro,
2006-09-17,3.10, -0.10, 4.00, 2.38, 1.55, 7.27, repro,
2006-09-18,5.67, -2.14, 4.88, 2.38, 1.55, 7.25, repro,
2006-09-19,4.85, -1.18, 1.02, 2.38, 1.54, 7.25, repro,
2006-09-20,4.13, -2.98, 0.30, 2.36, 1.55, 7.22, repro,
2006-09-21,4.47, -2.73, 5.26, 2.41, 1.60, 7.35, repro,
2006-09-22,3.89, -1.47, 1.55, 2.49, 1.64, 7.55, repro,
2006-09-23,2.76, -1.94, 1.27, 2.43, 1.61, 7.48, repro,
2006-09-24,2.85, -1.91, -5.66, 2.47, 1.61, 7.52, repro,
2006-09-25,-0.09, -2.90, -5.50, 2.39, 1.57, 7.32, repro,
2006-09-26,3.67, -2.03, -4.24, 2.37, 1.55, 7.25, repro,
2006-09-27,-1.47, 0.15, -9.13, 2.37, 1.55, 7.27, repro,
2006-09-28,3.17, -1.41, -4.49, 2.36, 1.55, 7.24, repro,
2006-09-29,4.28, -1.18, 5.43, 2.40, 1.56, 7.35, repro,
2006-09-30,1.76, -3.73, 10.79, 2.42, 1.58, 7.44, repro,
2006-10-01,3.78, -1.51, -3.02, 2.40, 1.55, 7.30, repro,
2006-10-02,4.71, -2.30, -7.02, 2.44, 1.59, 7.39, repro,
2006-10-03,5.10, -1.54, -7.54, 2.45, 1.61, 7.44, repro,
2006-10-04,3.80, 0.06, 0.24, 2.40, 1.56, 7.35, repro,
2006-10-05,4.74, -1.93, 1.42, 2.40, 1.56, 7.36, repro,
2006-10-06,4.87, -3.11, -0.82, 2.40, 1.56, 7.33, repro,
2006-10-07,5.50, -2.26, -6.64, 2.45, 1.60, 7.47, repro,
2006-10-08,6.60, -1.81, -9.51, 2.44, 1.59, 7.43, repro,
2006-10-09,3.53, -0.06, -7.48, 2.40, 1.57, 7.39, repro,
2006-10-10,4.62, -1.21, -2.47, 2.43, 1.59, 7.51, repro,
2006-10-11,1.48, -0.93, -6.98, 2.40, 1.57, 7.35, repro,
2006-10-12,4.49, -3.17, -6.95, 2.40, 1.57, 7.36, repro,
2006-10-13,4.88, -1.28, -6.04, 2.36, 1.53, 7.25, repro,
2006-10-14,5.01, -1.75, -3.18, 2.35, 1.55, 7.28, repro,
2006-10-15,6.49, -2.59, 9.40, 2.42, 1.59, 7.39, repro,
2006-10-16,6.96, -1.86, -0.04, 2.34, 1.54, 7.16, repro,
2006-10-17,5.87, -2.50, 0.64, 2.44, 1.59, 7.56, repro,
2006-10-18,6.10, -2.30, -4.93, 2.37, 1.54, 7.28, repro,
2006-10-19,4.94, -1.81, 4.77, 2.49, 1.64, 7.66, repro,
2006-10-20,4.53, -1.17, -0.56, 2.72, 1.78, 8.53, repro,
2006-10-21,5.17, 1.64, -18.15, 2.48, 1.63, 7.68, repro,
2006-10-22,3.00, -0.95, -4.81, 2.36, 1.54, 7.36, repro,
2006-10-23,3.39, -0.41, -9.62, 2.47, 1.60, 7.47, repro,
2006-10-24,3.40, -1.99, 4.38, 2.61, 1.66, 7.90, repro,
2006-10-25,4.25, -0.34, -4.13, 2.49, 1.63, 7.75, repro,
2006-10-26,5.33, -2.36, 6.45, 2.44, 1.59, 7.65, repro,
2006-10-27,4.18, -2.42, -2.97, 2.39, 1.57, 7.34, repro,
2006-10-28,7.29, -0.31, -6.07, 2.50, 1.62, 7.66, repro,
2006-10-29,6.73, -1.31, -4.87, 2.38, 1.55, 7.45, repro,
2006-10-30,6.77, -0.49, -9.86, 2.32, 1.53, 7.19, repro,
2006-10-31,5.78, 2.06, -9.12, 2.38, 1.55, 7.46, repro,
2006-11-01,5.82, -2.10, -6.78, 2.44, 1.58, 7.54, repro,
2006-11-02,8.30, -3.57, 3.22, 2.39, 1.56, 7.42, repro,
2006-11-03,6.83, -2.69, -3.07, 2.38, 1.56, 7.26, repro,
2006-11-04,6.81, -1.65, 0.68, 2.46, 1.62, 7.52, repro,
2006-11-05,6.98, -2.51, 2.29, 2.44, 1.58, 7.45, repro,
2006-11-06,3.43, -1.23, 3.78, 2.36, 1.53, 7.37, repro,
2006-11-07,1.12, -0.95, -6.49, 2.48, 1.61, 7.53, repro,
2006-11-08,6.67, 0.52, -21.92, 2.47, 1.60, 7.51, repro,
2006-11-09,5.30, -0.70, -4.04, 2.56, 1.66, 7.67, repro,
2006-11-10,4.12, -1.24, -1.63, 2.47, 1.60, 7.51, repro,
2006-11-11,5.19, -2.30, -7.40, 2.47, 1.61, 7.54, repro,
2006-11-12,2.81, -1.58, -5.87, 2.46, 1.60, 7.47, repro,
2006-11-13,6.64, -2.52, 4.80, 2.47, 1.62, 7.51, repro,
2006-11-14,5.45, -0.38, -1.75, 2.35, 1.55, 7.26, repro,
2006-11-15,6.24, -0.71, -1.61, 2.32, 1.53, 7.22, repro,
2006-11-16,8.77, -2.86, 1.40, 2.32, 1.52, 7.21, repro,
2006-11-17,4.71, -0.47, -4.74, 2.32, 1.52, 7.18, repro,
2006-11-18,8.00, -0.57, -8.84, 2.32, 1.52, 7.25, repro,
2006-11-19,8.06, -2.54, -3.43, 2.31, 1.52, 7.17, repro,
2006-11-20,6.43, -1.71, -6.38, 2.32, 1.54, 7.19, repro,
2006-11-21,7.38, -2.20, -1.88, 2.31, 1.52, 7.16, repro,
2006-11-22,7.96, -2.37, -3.09, 2.31, 1.53, 7.16, repro,
2006-11-23,7.82, -2.15, -12.81, 2.38, 1.58, 7.37, repro,
2006-11-24,7.20, -2.44, -10.07, 2.43, 1.61, 7.52, repro,
2006-11-25,7.76, -2.58, -10.99, 2.32, 1.53, 7.19, repro,